Terminal Aerodrome Forecast
Issued by NWS

Home | Current Version | Previous Version | Text Only | Print | Product List | Glossary On
Versions: 1 2 3 4 5 6 7 8 9 10 11 12 13 14 15 16 17 18 19 20
000
FTUS45 KABQ 201100 RRA
TAFTCC
TAF
KTCC 201140Z 2012/2112 24005KT P6SM VCFG SCT002 OVC015
     FM201500 03005KT P6SM SCT015 BKN040
     FM201800 09010KT P6SM SCT040=

USA.gov is the U.S. government's official web portal to all federal, state and local government web resources and services.